Location: Alembon
(50.7847°N, 1.8887°E)
Time: 06:53:27
(UTC+00:00)

Daily predictions for brighter satellites

Satellite Brightness Start Highest point End
(mag) Time Altitude Azimuth Time Altitude Azimuth Time Altitude Azimuth
Starlink (trailer) 4.1 17:25:05 10° SW 17:29:04 47° SSE 17:33:04 10° ENE
Meteor 2-12 Rocket 4.5 17:22:57 10° N 17:29:07 67° ENE 17:35:14 10° SSE
Unknown 3.5 17:26:11 10° W 17:29:40 59° N 17:33:09 10° ENE
Ariane Rocket 4.1 17:25:58 10° ESE 17:29:59 24° ENE 17:34:01 10° N
Unknown 4.1 17:26:43 10° SW 17:30:41 48° SSE 17:34:43 10° ENE
Cosmos 2082 Rocket 3.5 17:26:43 10° NNW 17:31:14 23° NE 17:35:42 10° E
Unknown 4.0 17:28:19 10° SW 17:32:19 49° SSE 17:36:20 10° ENE
COSMOS 2406 3.6 17:27:35 10° NNW 17:33:11 48° NE 17:38:44 10° SE
Cosmos 1758 Rocket 3.6 17:29:19 10° N 17:33:46 79° E 17:38:15 10° SSE
Cosmos 1953 2.5 17:31:04 10° S 17:35:01 51° E 17:38:58 10° NNE
Cosmos 1992 Rocket 4.2 17:31:58 10° S 17:36:58 48° ESE 17:41:59 10° NNE
Cosmos 1503 Rocket 4.0 17:32:26 10° NNW 17:37:39 88° WSW 17:42:49 10° SSE
Unknown 3.9 17:34:48 10° SW 17:38:51 54° SSE 17:42:54 10° ENE
Cosmos 371 Rocket 4.3 17:34:13 10° SW 17:38:53 49° WNW 17:43:35 10° NNE
Unknown 3.9 17:34:58 10° SW 17:38:59 53° SSE 17:43:03 10° ENE
Unknown 3.9 17:35:40 10° SW 17:39:43 54° SSE 17:43:46 10° ENE
Lacrosse 5 2.5 17:34:58 10° WNW 17:39:51 45° N 17:44:43 10° E
Cosmos 304 Rocket 3.8 17:35:09 10° SSW 17:39:57 86° ESE 17:44:48 10° NNE
Unknown 3.5 17:37:35 10° W 17:41:20 73° NNW 17:45:03 10° ENE
Cosmos 1758 3.4 17:37:36 10° SSW 17:41:36 83° WNW 17:45:35 10° N
CSL-04 Debris 4.3 17:37:07 10° SE 17:42:24 54° ENE 17:47:44 10° N
Cosmos 2285 Rocket 4.2 17:36:42 10° NNW 17:43:12 83° WSW 17:49:36 10° SSE
Cosmos 724 4.4 17:37:22 10° SSW 17:43:30 77° SE 17:49:32 10° NE
Unknown 3.9 17:39:38 10° SW 17:43:41 57° SSE 17:47:40 11° ENE
Unknown 3.9 17:39:54 10° SW 17:43:57 57° SSE 17:47:56 11° ENE
Unknown 3.8 17:41:38 10° SW 17:45:43 60° SSE 17:49:38 11° ENE
Cosmos 839 Rocket 4.1 17:40:02 10° NW 17:46:11 68° NE 17:52:53 10° SE
Cosmos 1461 4.0 17:45:11 10° NNW 17:48:40 27° NE 17:51:48 12° E
Unknown 3.8 17:44:55 10° SW 17:49:01 62° SSE 17:52:49 12° ENE
Unknown 3.5 17:45:22 10° WSW 17:49:12 80° NNW 17:52:44 12° ENE
SKYMED 2 3.8 17:45:12 10° NNE 17:49:27 49° E 17:53:40 10° S
Unknown 3.8 17:45:25 10° SW 17:49:30 61° SSE 17:53:16 12° ENE
FengYun 1-2 T 4.2 17:44:16 10° SSE 17:49:54 75° ENE 17:55:31 10° NNW
Unknown 3.8 17:46:30 10° SW 17:50:36 62° SSE 17:54:20 12° ENE
Unknown 3.5 17:48:00 10° WSW 17:51:55 85° NNW 17:55:25 13° ENE
Unknown 3.7 17:49:43 10° SW 17:53:49 63° SSE 17:57:25 13° ENE
COBE Rocket 4.0 17:50:50 10° NNE 17:56:03 73° E 18:01:09 10° S
Cosmos 1844 Rocket 2.7 17:51:01 10° SSW 17:56:37 70° ESE 18:02:15 10° NNE
YAOGAN 1 2.6 17:52:24 10° SSE 17:56:40 61° ENE 18:00:58 10° N
Unknown 3.7 17:53:06 10° SW 17:57:13 67° SSE 18:00:42 14° ENE
YAOGAN 6 2.5 17:55:10 10° SSE 17:58:50 75° ENE 18:02:29 10° N
Unknown 3.7 17:54:46 10° WSW 17:58:52 68° SSE 18:02:18 15° ENE
H-2A R/B 3.6 17:57:23 13° E 17:59:58 18° NE 18:03:27 10° NNE
Unknown 3.7 17:56:25 10° WSW 18:00:32 69° SSE 18:03:54 15° ENE
Unknown 3.6 17:58:04 10° WSW 18:02:12 71° SSE 18:05:30 16° ENE
Meteor 1-16 Rocket 4.2 17:57:15 10° S 18:02:40 56° E 18:07:58 10° NNE
Lacrosse 5 rocket 2.6 17:59:21 10° WNW 18:02:48 36° SW 18:06:26 10° SSE
Cosmos 1939 Rocket 3.4 17:59:36 10° SE 18:03:16 37° ENE 18:07:01 10° N
Unknown 3.6 18:01:20 10° WSW 18:05:29 73° SSE 18:08:39 17° ENE
Unknown 3.6 18:03:05 10° WSW 18:07:13 75° SSE 18:10:20 17° ENE
Cosmos 1908 3.9 18:04:39 10° SSE 18:08:07 31° E 18:11:37 10° NNE
Unknown 3.6 18:04:44 10° WSW 18:08:53 76° SSE 18:11:55 18° ENE
Cosmos 1726 Rocket 3.5 18:05:32 10° S 18:09:56 81° E 18:14:20 10° NNE
Unknown 3.6 18:06:20 10° WSW 18:10:28 76° SSE 18:13:27 18° ENE
Unknown 3.6 18:06:49 10° WSW 18:10:57 77° SSE 18:13:56 18° ENE
ATLAS CENTAUR R/B 3.9 18:09:30 10° NW 18:12:16 15° N 18:14:58 10° NNE
Unknown 3.6 18:09:30 10° WSW 18:13:38 76° SSE 18:16:28 20° ENE
Shenzhou-11 Module 4.0 18:12:41 10° SSW 18:14:23 15° S 18:15:23 13° SSE
Cosmos 1470 4.4 18:10:45 10° SW 18:14:29 38° WNW 18:18:15 10° N
Cosmos 1328 3.7 18:11:07 10° N 18:15:08 76° E 18:19:06 10° SSE
Cosmos 2278 Rocket 3.0 18:10:52 10° SSE 18:15:35 28° ESE 18:20:21 10° NE
CZ-4C R/B 4.3 18:09:28 10° NW 18:16:07 40° WSW 18:23:33 10° S
Unknown 3.6 18:12:51 10° WSW 18:17:00 79° SSE 18:19:43 21° ENE
Unknown 3.6 18:14:27 10° WSW 18:18:35 80° SSE 18:21:13 22° ENE
Cosmos 2228 3.2 18:14:57 10° SSW 18:19:20 78° W 18:23:43 10° N
Cosmos 1844 3.7 18:13:43 10° SSW 18:19:26 81° ESE 18:25:15 10° NNE
Unknown 3.6 18:16:23 10° WSW 18:20:32 85° SSE 18:23:08 22° ENE
Unknown 3.6 18:17:46 10° WSW 18:21:56 82° SSE 18:24:27 23° ENE
Cosmos 2058 Rocket 2.9 18:18:13 10° S 18:22:33 73° E 18:26:55 10° NNE
Unknown 3.5 18:19:28 10° WSW 18:23:37 84° SSE 18:26:03 24° ENE
CZ-4 R/B 2.2 18:20:07 10° S 18:24:13 57° W 18:28:24 10° NNW
ATLAS 5 CENTAUR R/B 2.1 18:20:41 10° WSW 18:25:00 63° NW 18:29:59 10° NE
Envisat 4.1 18:21:12 10° S 18:26:05 47° W 18:31:01 10° NNW
Unknown 3.5 18:22:47 10° WSW 18:26:57 86° SSE 18:29:16 25° ENE
Unknown 3.5 18:24:29 10° WSW 18:28:38 87° SSE 18:30:53 26° ENE
Cosmos 921 Rocket 3.0 18:25:45 10° SSW 18:30:15 88° ESE 18:34:46 10° NNE
Unknown 3.5 18:26:08 10° WSW 18:30:18 88° SSE 18:32:29 27° ENE
Unknown 3.5 18:27:49 10° WSW 18:31:58 89° SSE 18:34:06 28° ENE
Cosmos 1605 Rocket 3.9 18:26:24 10° N 18:32:40 79° E 18:38:47 10° SSE
FREGAT/IRIS 4.3 18:34:03 19° NNE 18:34:03 19° NNE 18:35:14 10° N
Unknown 3.5 18:31:07 10° WSW 18:35:17 88° N 18:37:16 30° ENE
Unknown 3.0 18:32:47 10° WNW 18:35:53 69° SSW 18:36:50 40° SE
Cosmos 1356 3.3 18:32:53 10° S 18:36:19 86° E 18:39:47 10° NNE
Unknown 3.6 18:32:41 10° WSW 18:36:51 86° NNW 18:38:47 31° ENE
DMSP B5D1-3 4.5 18:31:55 10° NNE 18:37:01 63° ESE 18:42:07 10° S
Unknown 3.6 18:33:05 10° WSW 18:37:15 83° NNW 18:39:10 31° ENE
COSMO-SKYMED 1 3.2 18:33:18 10° N 18:37:35 58° WNW 18:41:51 10° SSW
Cosmos 2084 3.6 18:33:04 10° SW 18:37:37 78° NW 18:41:05 17° NE
ADEOS Rocket 4.2 18:31:13 10° NNE 18:37:48 29° E 18:44:02 10° SSE
Unknown 3.6 18:34:41 10° WSW 18:38:51 83° NNW 18:40:43 32° ENE
FALCON 9 DEB 3.2 18:35:31 10° WNW 18:39:00 67° N 18:39:59 42° ENE
CSL-04 Rocket 4.4 18:35:40 10° S 18:41:07 58° WSW 18:46:34 10° NNW
Unknown 3.6 18:37:42 10° WSW 18:41:52 84° NNW 18:43:35 34° ENE
USA 116 3.4 18:39:36 10° N 18:42:42 70° WNW 18:45:56 10° SSW
Cosmos 1727 Rocket 4.1 18:37:00 10° SSE 18:42:56 51° E 18:48:53 10° NNE
Cosmos 2263 Rocket 4.4 18:39:01 10° W 18:43:22 22° NW 18:47:44 10° NNE
Unknown 3.3 18:40:18 10° WNW 18:43:49 65° N 18:44:38 46° ENE
ASTEX 1 4.2 18:39:25 10° N 18:44:15 55° WNW 18:49:05 10° SSW
SJ-11-01 4.5 18:42:01 26° SE 18:44:22 48° ENE 18:48:54 10° N
Resurs 01 Rocket 3.4 18:45:25 16° NE 18:45:25 16° NE 18:47:21 10° NNE
Unknown 3.6 18:41:03 10° WSW 18:45:12 82° NNW 18:46:48 37° ENE
NOAA 11 4.2 18:41:03 10° SSE 18:46:31 83° WSW 18:51:59 10° NNW
Unknown 3.6 18:42:47 10° WSW 18:46:57 81° NNW 18:48:29 38° ENE
Unknown 3.0 18:44:14 10° WNW 18:47:39 74° NNE 18:48:13 57° ENE
SJ 16-02 3.0 18:44:53 10° N 18:47:27 18° NE 18:47:27 18° NE
Unknown 3.6 18:44:23 10° WSW 18:48:33 81° NNW 18:50:00 39° ENE
CZ-2D R/B 3.6 18:46:07 10° S 18:49:56 65° WSW 18:53:48 10° NNW
Unknown 3.6 18:46:07 10° WSW 18:50:16 80° NNW 18:51:40 41° ENE
Unknown 3.6 18:47:21 10° W 18:51:27 76° NNW 18:52:45 42° ENE
Cosmos 2173 Rocket 4.2 18:47:43 10° N 18:53:49 48° ENE 18:56:56 27° SE
Cosmos 1726 2.9 18:50:37 10° SSW 18:54:12 53° WNW 18:57:48 10° N
Cosmos 2058 3.4 18:51:00 10° N 18:54:47 40° ENE 18:54:47 40° ENE
Cosmos 1833 Rocket 2.6 18:50:35 10° NNW 18:56:15 86° ENE 18:59:52 23° SSE
Unknown 3.6 18:52:43 10° W 18:56:53 76° NNW 18:58:01 47° ENE
BREEZE M DEB (TANK) 3.6 18:55:23 10° W 18:57:50 32° SSW 18:59:45 23° SSE
ARGOS 3.6 18:57:06 36° E 18:58:15 41° ENE 19:03:20 10° N
Unknown 3.6 18:54:26 10° W 18:58:35 76° NNW 18:59:38 48° ENE
Falcon 9 debris 3.0 18:56:22 10° WNW 18:59:50 80° NNE 18:59:57 78° NE
Unknown 3.7 18:55:54 10° W 18:59:56 68° N 19:00:51 49° NE
Unknown 3.6 18:56:05 10° W 19:00:15 75° NNW 19:01:14 50° ENE
Unknown 3.6 18:57:40 10° W 19:01:49 74° NNW 19:02:44 52° NE
Unknown 3.7 18:59:24 10° W 19:03:33 74° NNW 19:04:24 53° NE
Gbstr 26 Del rocket 4.1 18:58:54 10° WNW 19:05:05 76° SSW 19:08:28 34° ESE
Unknown 3.7 19:02:46 10° W 19:06:56 72° NNW 19:07:39 57° NE
Unknown 3.1 19:03:34 10° WNW 19:06:59 77° NNW 19:06:59 77° NNW
Ariane Rocket 3.4 19:03:31 10° S 19:08:34 63° WSW 19:13:39 10° NNW
Starlink (trailer) 3.7 19:04:27 10° W 19:08:36 72° NNW 19:09:14 58° NE
USA 238 DEB 4.0 19:03:46 10° S 19:09:58 42° ESE 19:11:09 39° E
USA 238 4.0 19:03:54 10° S 19:10:06 41° ESE 19:11:10 39° E
Unknown 3.7 19:06:05 10° W 19:10:15 71° N 19:10:49 60° NE
Cosmos 1725 Rocket 4.5 19:05:22 10° N 19:11:10 38° ENE 19:11:31 37° ENE
Unknown 3.7 19:07:42 10° W 19:11:52 70° N 19:12:22 62° NE
Cosmos 2100 Rocket 3.9 19:06:54 10° N 19:13:07 68° ENE 19:16:25 29° SSE
SJ-6B 3.3 19:14:19 45° NNE 19:14:19 45° NNE 19:17:09 10° N
Cosmos 967 Rocket 4.4 19:07:48 10° NW 19:14:19 84° NE 19:17:00 38° SE
Cosmos 2082 Rocket 2.1 19:10:25 10° NNW 19:16:11 86° ENE 19:18:18 41° SSE
Unknown 3.7 19:14:17 10° W 19:18:24 68° N 19:18:39 66° NNE
Unknown 3.7 19:14:26 10° W 19:18:35 68° N 19:18:48 66° NNE
Unknown 3.7 19:15:09 10° W 19:19:18 68° N 19:19:30 67° NNE
Unknown 3.7 19:15:53 10° WNW 19:19:16 60° NNW 19:19:16 60° NNW
SPOT 3 Rocket 3.4 19:19:14 51° SE 19:20:28 72° ENE 19:25:40 10° NNW
Cosmos 292 Rocket 4.4 19:18:09 10° SW 19:22:48 54° WNW 19:27:29 10° NNE
Lacrosse 5 1.7 19:18:08 10° WNW 19:23:13 86° SW 19:23:56 66° SE
Unknown 3.7 19:19:09 10° W 19:23:17 67° N 19:23:19 67° N
Unknown 3.7 19:19:26 10° W 19:23:34 67° N 19:23:35 67° N
Cosmos 1812 Rocket 3.5 19:19:53 10° S 19:24:18 87° W 19:28:48 10° N
Unknown 3.8 19:21:12 10° W 19:25:17 66° NNW 19:25:17 66° NNW
Cosmos 1937 Rocket 4.1 19:21:57 10° NNW 19:26:12 39° NE 19:26:12 39° NE
Unknown 4.0 19:24:00 10° WNW 19:27:16 54° NW 19:27:16 54° NW
Cosmos 1461 3.2 19:24:01 10° NW 19:28:02 58° SW 19:28:13 58° SW
Unknown 3.9 19:24:32 10° W 19:28:28 64° NNW 19:28:28 64° NNW
Unknown 3.9 19:25:00 10° W 19:28:55 64° NNW 19:28:55 64° NNW
Unknown 3.9 19:26:06 10° W 19:29:59 63° NNW 19:29:59 63° NNW
Unknown 4.1 19:26:53 10° WNW 19:30:11 53° NW 19:30:11 53° NW
Cosmos 2084 Rocket 3.6 19:27:22 10° NW 19:31:23 67° N 19:31:23 67° N
Unknown 4.0 19:29:20 10° W 19:33:04 61° NW 19:33:04 61° NW
Cosmos 990 Rocket 4.2 19:30:39 10° NNW 19:35:19 56° NE 19:35:19 56° NE
NOSS 3-2 (A) 4.3 19:30:43 10° SSW 19:33:54 32° S 19:33:54 32° S
Unknown 4.1 19:32:45 10° W 19:36:21 57° NW 19:36:21 57° NW
Cosmos 2016 Rocket 3.9 19:31:08 10° N 19:37:23 68° ENE 19:38:11 61° ESE
Cosmos 1076 Rocket 4.1 19:33:56 10° NNW 19:38:14 56° W 19:39:05 47° SW
Unknown 4.2 19:34:26 10° W 19:37:57 55° NW 19:37:57 55° NW
H-2A R/B 2.0 19:38:00 71° SSE 19:38:37 85° ENE 19:44:03 10° NNW
NOSS 3-3 (A) 4.5 19:32:19 10° NW 19:39:43 82° SW 19:42:40 44° SSE
NOSS 3-3 (C) 4.5 19:32:24 10° NW 19:39:48 82° SW 19:42:45 44° SSE
Unknown 4.3 19:36:06 10° W 19:39:33 54° NW 19:39:33 54° NW
Unknown 4.3 19:37:46 10° W 19:41:09 52° NW 19:41:09 52° NW
SL-08 R/B 4.4 19:36:12 10° N 19:42:13 62° ENE 19:42:13 62° ENE
In-Cosmos 22 Rocket 4.0 19:39:19 10° NNW 19:44:42 85° WSW 19:45:16 72° S
Unknown 4.5 19:41:03 10° W 19:44:18 49° WNW 19:44:18 49° WNW
Cosmos 2061 Rocket 3.8 19:42:21 10° N 19:48:41 83° E 19:49:35 67° SSE
ATLAS CENTAUR R/B 3.7 19:49:34 10° NNW 19:52:13 19° N 19:52:13 19° N
Cosmos 2278 Rocket 2.6 19:53:43 10° SW 19:59:20 60° NW 20:04:37 12° NNE
MetOp-A 4.5 20:02:38 58° N 20:02:38 58° N 20:06:56 10° NNW
CZ-2C R/B 3.3 20:02:00 78° N 20:02:00 78° N 20:07:27 10° NNW
Cosmos 1898 Rocket 3.9 20:04:06 10° NNW 20:08:27 60° NW 20:08:27 60° NW
ATLAS 5 CENTAUR R/B 3.7 20:06:48 10° WNW 20:10:38 24° NNW 20:11:49 22° N
Resurs 01 Rocket 3.6 20:22:59 25° NNW 20:22:59 25° NNW 20:24:53 10° NNW
ADEOS Rocket 3.6 20:16:10 10° NNE 20:23:58 75° WNW 20:31:19 10° SSW
SJ 16-02 3.4 20:22:42 10° NNW 20:24:27 23° NNW 20:24:27 23° NNW
ARGOS 4.4 20:38:37 37° W 20:38:37 37° W 20:43:36 10° NNW
Cosmos 2082 Rocket 4.3 20:55:43 10° WNW 20:59:31 19° W 21:00:10 18° WSW
Lacrosse 5 4.4 21:01:44 10° WNW 21:03:09 16° W 21:03:09 16° W
H-2A R/B 4.5 21:18:39 17° W 21:18:46 17° W 21:22:11 10° NW
